Kansas Department of Transportation
RWIS(Road and Runway Information System) Map and Weather Data





Station
Surface
Air
Wind
Site IDSensor TypeLocationTemperature (°F)Temperature (°F)Humidity (%)Speed (mi/h)Gusts (mi/h)DirectionTime
123002AtmosphericBonner Springs 681400NAug 23 2017 10:05AM
123002ApproachBonner Springs91     Aug 23 2017 10:05AM
123002DeckBonner Springs90     Aug 23 2017 10:05AM
123014AtmosphericBull Creek 754323ESEAug 23 2017 10:05AM
123014DeckBull Creek86     Aug 23 2017 10:05AM
123014DepartureBull Creek90     Aug 23 2017 10:05AM
123015AtmosphericLeavenworth 686514SSWAug 23 2017 10:05AM
123015DeckLeavenworth88     Aug 23 2017 10:05AM
123015DepartureLeavenworth88     Aug 23 2017 10:05AM
123020AtmosphericMayetta 724966SSEAug 23 2017 10:05AM
123020RoadwayMayetta93     Aug 23 2017 10:05AM
123020DeckMayetta97     Aug 23 2017 10:05AM
505000AtmosphericKTA 1 725226ENEAug 23 2017 10:00AM
505000ApproachKTA 184     Aug 23 2017 10:00AM
505000DeckKTA 190     Aug 23 2017 10:00AM
505001AtmosphericKTA 2 725626EAug 23 2017 10:00AM
505001ApproachKTA 284     Aug 23 2017 10:00AM
505001DeckKTA 288     Aug 23 2017 10:00AM
505002AtmosphericKTA 3 726227SEAug 23 2017 10:00AM
505002ApproachKTA 3Unavailable     Aug 23 2017 10:00AM
505002DeckKTA 382     Aug 23 2017 10:00AM
505003AtmosphericKTA 4 705768NAug 23 2017 10:00AM
505003ApproachKTA 486     Aug 23 2017 10:00AM
505003DeckKTA 488     Aug 23 2017 10:00AM
505004AtmosphericKTA 5 709979ESEAug 23 2017 10:00AM
505004RoadwayKTA 588     Aug 23 2017 10:00AM
505004RoadwayKTA 588     Aug 23 2017 10:00AM
505005AtmosphericKTA 6 734814EAug 23 2017 10:00AM
505005Approach KTA 690     Aug 23 2017 10:00AM
505005DeckKTA 682     Aug 23 2017 10:00AM
505006AtmosphericKTA 7 726224ESEAug 23 2017 10:00AM
505006ApproachKTA 7Unavailable     Aug 23 2017 10:00AM
505006DeckKTA 784     Aug 23 2017 10:00AM
505007AtmosphericKTA 8 725524SEAug 23 2017 10:00AM
505007ApproachKTA 886     Aug 23 2017 10:00AM
505007DeckKTA 882     Aug 23 2017 10:00AM
505008AtmosphericKTA 9 721012NNEAug 23 2017 10:00AM
505008ApproachKTA 988     Aug 23 2017 10:00AM
505008DeckKTA 981     Aug 23 2017 10:00AM
505009AtmosphericKTA 10 773912WAug 23 2017 10:00AM
505009ApproachKTA 1084     Aug 23 2017 10:00AM
505009DeckKTA 1081     Aug 23 2017 10:00AM
505010AtmosphericWebb 722068NEAug 23 2017 10:05AM
505010DeckWebb84     Aug 23 2017 10:05AM
505010NullWebb90     Aug 23 2017 10:05AM
505014AtmosphericI-135 725248EAug 23 2017 10:05AM
505014ApproachI-13586     Aug 23 2017 10:05AM
505014DeckI-13586     Aug 23 2017 10:05AM
540000AtmosphericBlue Rapids 706112SEAug 23 2017 10:05AM
540000DeckBlue Rapids81     Aug 23 2017 10:05AM
540000DepartureBlue Rapids88     Aug 23 2017 10:05AM
540001AtmosphericSabetha 705335SWAug 23 2017 10:05AM
540001ApproachSabetha90     Aug 23 2017 10:05AM
540001DeckSabetha90     Aug 23 2017 10:05AM
540003AtmosphericEmporia 705924SSEAug 23 2017 10:05AM
540003ApproachEmporia90     Aug 23 2017 10:05AM
540003DeckEmporia84     Aug 23 2017 10:05AM
540005AtmosphericLawrence 687114SSEAug 23 2017 10:05AM
540005ApproachLawrence82     Aug 23 2017 10:05AM
540005DeckLawrence154     Aug 23 2017 10:05AM
540006AtmosphericTroy 728101WNWAug 23 2017 10:05AM
540006DeckTroy84     Aug 23 2017 10:05AM
540006DepartureTroy91     Aug 23 2017 10:05AM
540007AtmosphericManhattan 687111NAug 23 2017 10:05AM
540007DepartureManhattan82     Aug 23 2017 10:05AM
540007DeckManhattan90     Aug 23 2017 10:05AM
541001AtmosphericSyracuse 6872713SAug 23 2017 10:05AM
541001Out of Service for WinterSyracuse88     Aug 23 2017 10:05AM
541001DeckSyracuse82     Aug 23 2017 10:05AM
541002AtmosphericLiberal 687147SEAug 23 2017 10:05AM
541002ApproachLiberalUnavailable     Aug 23 2017 10:05AM
541002DeckLiberalUnavailable     Aug 23 2017 10:05AM
541003AtmosphericFord 704657ESEAug 23 2017 10:05AM
541003DeckFord82     Aug 23 2017 10:05AM
541003DepartureFord90     Aug 23 2017 10:05AM
541004AtmosphericScott 68111012SEAug 23 2017 10:05AM
541004DepartureScott90     Aug 23 2017 10:05AM
541005AtmosphericNess 684200SAug 23 2017 10:05AM
541005DeckNess82     Aug 23 2017 10:05AM
541005DepartureNess90     Aug 23 2017 10:05AM
541007AtmosphericGarden City 6477811SSEAug 23 2017 10:05AM
541007ApproachGarden City72     Aug 23 2017 10:05AM
541007DeckGarden CityUnavailable     Aug 23 2017 10:05AM
543000AtmosphericJunction City 725124NNEAug 23 2017 10:05AM
543000ApproachJunction City88     Aug 23 2017 10:05AM
543000DeckJunction City86     Aug 23 2017 10:05AM
543001AtmosphericEllsworth 7034711WSWAug 23 2017 10:05AM
543001RoadwayEllsworth93     Aug 23 2017 10:05AM
543002AtmosphericMcPherson 705078SEAug 23 2017 10:05AM
543002ApproachMcPherson86     Aug 23 2017 10:05AM
543003AtmosphericSalina 723047NAug 23 2017 10:05AM
543003DepartureSalina88     Aug 23 2017 10:05AM
543003RoadwaySalinaUnavailable     Aug 23 2017 10:05AM
543004AtmosphericConcordia 685669SSEAug 23 2017 10:05AM
543004ApproachConcordiaUnavailable     Aug 23 2017 10:05AM
543004DeckConcordia79     Aug 23 2017 10:05AM
543005AtmosphericPeabody 634478NNEAug 23 2017 10:05AM
543005ApproachPeabody91     Aug 23 2017 10:05AM
543005DeckPeabodyUnavailable     Aug 23 2017 10:05AM
560000AtmosphericEdson 6852914SSWAug 23 2017 10:05AM
560000RoadwayEdson82     Aug 23 2017 10:05AM
560000RoadwayEdson82     Aug 23 2017 10:05AM
560001AtmosphericOakley 6850811SSEAug 23 2017 10:05AM
560001ApproachOakley84     Aug 23 2017 10:05AM
560001DeckOakley82     Aug 23 2017 10:05AM
560002AtmosphericAtwood 70471218SAug 23 2017 10:05AM
560002ApproachAtwoodUnavailable     Aug 23 2017 10:05AM
560002DeckAtwood82     Aug 23 2017 10:05AM
560003AtmosphericJennings 704435SWAug 23 2017 10:05AM
560003ApproachJennings86     Aug 23 2017 10:05AM
560003DeckJenningsUnavailable     Aug 23 2017 10:05AM
560003DeckJenningsUnavailable     Aug 23 2017 10:05AM
560004AtmosphericWakeeney 6850610SAug 23 2017 10:05AM
560004ApproachWakeeney86     Aug 23 2017 10:05AM
560004DeckWakeeney82     Aug 23 2017 10:05AM
560005AtmosphericWalker 704169SSEAug 23 2017 10:05AM
560005ApproachWalker      Aug 23 2017 10:05AM
560005DeckWalker      Aug 23 2017 10:05AM
560006AtmosphericBow Creek(Stockton) 7042711SSWAug 23 2017 10:05AM
560006ApproachBow Creek(Stockton)90     Aug 23 2017 10:05AM
560006DeckBow Creek(Stockton)84     Aug 23 2017 10:05AM
560007AtmosphericLebanon 686069SAug 23 2017 10:05AM
560007ApproachLebanonUnavailable     Aug 23 2017 10:05AM
560007DeckLebanonUnavailable     Aug 23 2017 10:05AM
560008AtmosphericWallace 68301114SSWAug 23 2017 10:05AM
560008ApproachWallace90     Aug 23 2017 10:05AM
560008DeckWallace84     Aug 23 2017 10:05AM
572000AtmosphericGreat Bend 7054711SEAug 23 2017 10:05AM
572000ApproachGreat Bend90     Aug 23 2017 10:05AM
572000DeckGreat Bend84     Aug 23 2017 10:05AM
572001AtmosphericPratt 703826ENEAug 23 2017 10:05AM
572001ApproachPratt90     Aug 23 2017 10:05AM
572001DeckPratt86     Aug 23 2017 10:05AM
572002AtmosphericAnthony 725259EAug 23 2017 10:05AM
572002ApproachAnthony95     Aug 23 2017 10:05AM
572002DeckAnthony91     Aug 23 2017 10:05AM
573000AtmosphericEureka 686159ESEAug 23 2017 10:05AM
573000DeckEurekaUnavailable     Aug 23 2017 10:05AM
573000DepartureEureka84     Aug 23 2017 10:05AM
573001AtmosphericGarnett 686123NEAug 23 2017 10:05AM
573001ApproachGarnett90     Aug 23 2017 10:05AM
573001DeckGarnett88     Aug 23 2017 10:05AM
573002AtmosphericCaney 734547NAug 23 2017 10:05AM
573002RoadwayCaney95     Aug 23 2017 10:05AM
573003AtmosphericChetopa 726269NEAug 23 2017 10:05AM
573003DeckChetopa95     Aug 23 2017 10:05AM
573003DeckChetopa95     Aug 23 2017 10:05AM
573003DepartureChetopa97     Aug 23 2017 10:05AM
573004AtmosphericChanute 725779NEAug 23 2017 10:05AM
573004ApproachChanute90     Aug 23 2017 10:05AM
573004DeckChanute86     Aug 23 2017 10:05AM